Time,TemperatureF,DewpointF,PressureIn,WindDirection,WindDirectionDegrees,WindSpeedMPH,WindSpeedGustMPH,Humidity,HourlyPrecipIn,Conditions,Clouds,dailyrainin,SoftwareType,DateUTC
2013-02-16 00:04:00,44.7,11.0,30.31,North,5,0.0,6.0,25,0.00,,,0.00,WUHU216DAVISVP2,2013-02-16 08:04:00,
2013-02-16 00:09:00,44.6,10.8,30.31,North,5,1.0,6.0,25,0.00,,,0.00,WUHU216DAVISVP2,2013-02-16 08:09:00,
2013-02-16 00:14:00,44.1,10.3,30.31,North,5,1.0,4.0,25,0.00,,,0.00,WUHU216DAVISVP2,2013-02-16 08:14:00,
2013-02-16 00:19:00,43.8,10.9,30.31,North,5,2.0,4.0,26,0.00,,,0.00,WUHU216DAVISVP2,2013-02-16 08:19:00,
2013-02-16 00:25:00,44.1,10.5,30.30,North,5,0.0,4.0,25,0.00,,,0.00,WUHU216DAVISVP2,2013-02-16 08:25:00,
2013-02-16 00:30:00,44.2,10.5,30.30,North,5,4.0,4.0,25,0.00,,,0.00,WUHU216DAVISVP2,2013-02-16 08:30:00,
2013-02-16 00:35:00,44.3,10.5,30.30,North,5,5.0,6.0,25,0.00,,,0.00,WUHU216DAVISVP2,2013-02-16 08:35:00,
2013-02-16 00:40:00,44.2,10.4,30.30,North,5,1.0,6.0,25,0.00,,,0.00,WUHU216DAVISVP2,2013-02-16 08:40:00,
2013-02-16 00:45:00,43.8,10.1,30.30,North,5,0.0,6.0,25,0.00,,,0.00,WUHU216DAVISVP2,2013-02-16 08:45:00,
2013-02-16 00:50:00,43.8,10.9,30.30,North,5,3.0,5.0,26,0.00,,,0.00,WUHU216DAVISVP2,2013-02-16 08:50:00,
2013-02-16 00:55:00,44.1,11.2,30.30,North,5,2.0,5.0,26,0.00,,,0.00,WUHU216DAVISVP2,2013-02-16 08:55:00,
2013-02-16 01:01:00,44.5,10.7,30.30,North,5,2.0,5.0,25,0.00,,,0.00,WUHU216DAVISVP2,2013-02-16 09:01:00,
2013-02-16 01:07:00,44.7,10.9,30.30,North,5,0.0,5.0,25,0.00,,,0.00,WUHU216DAVISVP2,2013-02-16 09:07:00,
2013-02-16 01:12:00,44.7,10.9,30.30,North,5,0.0,5.0,25,0.00,,,0.00,WUHU216DAVISVP2,2013-02-16 09:12:00,
2013-02-16 01:18:00,44.3,9.6,30.30,North,5,0.0,3.0,24,0.00,,,0.00,WUHU216DAVISVP2,2013-02-16 09:18:00,
2013-02-16 01:24:00,43.1,9.5,30.30,North,5,3.0,3.0,25,0.00,,,0.00,WUHU216DAVISVP2,2013-02-16 09:24:00,
2013-02-16 01:29:00,42.2,9.6,30.30,North,5,0.0,4.0,26,0.00,,,0.00,WUHU216DAVISVP2,2013-02-16 09:29:00,
2013-02-16 01:35:00,41.9,10.1,30.30,North,5,1.0,4.0,27,0.00,,,0.00,WUHU216DAVISVP2,2013-02-16 09:35:00,
2013-02-16 01:40:00,41.8,10.1,30.30,North,5,1.0,4.0,27,0.00,,,0.00,WUHU216DAVISVP2,2013-02-16 09:40:00,
2013-02-16 01:45:00,41.9,10.1,30.30,North,5,1.0,3.0,27,0.00,,,0.00,WUHU216DAVISVP2,2013-02-16 09:45:00,
2013-02-16 01:50:00,42.1,10.3,30.30,North,5,3.0,4.0,27,0.00,,,0.00,WUHU216DAVISVP2,2013-02-16 09:50:00,
2013-02-16 01:55:00,41.3,8.8,30.29,North,5,4.0,4.0,26,0.00,,,0.00,WUHU216DAVISVP2,2013-02-16 09:55:00,
2013-02-16 02:01:00,39.9,9.4,30.29,NW,306,5.0,7.0,28,0.00,,,0.00,WUHU216DAVISVP2,2013-02-16 10:01:00,
2013-02-16 02:06:00,39.8,9.3,30.29,NW,306,7.0,8.0,28,0.00,,,0.00,WUHU216DAVISVP2,2013-02-16 10:06:00,
2013-02-16 02:11:00,40.4,9.6,30.29,NW,320,6.0,8.0,28,0.00,,,0.00,WUHU216DAVISVP2,2013-02-16 10:11:00,
2013-02-16 02:17:00,40.9,9.3,30.29,NW,320,4.0,8.0,27,0.00,,,0.00,WUHU216DAVISVP2,2013-02-16 10:17:00,
2013-02-16 02:22:00,40.9,9.3,30.29,NW,320,4.0,8.0,27,0.00,,,0.00,WUHU216DAVISVP2,2013-02-16 10:22:00,
2013-02-16 02:27:00,41.0,9.4,30.29,NW,320,5.0,7.0,27,0.00,,,0.00,WUHU216DAVISVP2,2013-02-16 10:27:00,
2013-02-16 02:32:00,40.2,8.8,30.28,NW,320,5.0,6.0,27,0.00,,,0.00,WUHU216DAVISVP2,2013-02-16 10:32:00,
2013-02-16 02:37:00,39.9,9.4,30.28,NW,318,5.0,6.0,28,0.00,,,0.00,WUHU216DAVISVP2,2013-02-16 10:37:00,
2013-02-16 02:42:00,40.7,9.9,30.28,NW,312,4.0,6.0,28,0.00,,,0.00,WUHU216DAVISVP2,2013-02-16 10:42:00,
2013-02-16 02:47:00,41.2,9.5,30.28,NW,312,4.0,6.0,27,0.00,,,0.00,WUHU216DAVISVP2,2013-02-16 10:47:00,
2013-02-16 02:52:00,41.2,9.5,30.28,NW,317,2.0,5.0,27,0.00,,,0.00,WUHU216DAVISVP2,2013-02-16 10:52:00,
2013-02-16 02:58:00,40.8,10.0,30.28,NW,317,0.0,5.0,28,0.00,,,0.00,WUHU216DAVISVP2,2013-02-16 10:58:00,
2013-02-16 03:04:00,40.8,10.2,30.27,NW,317,0.0,4.0,28,0.00,,,0.00,WUHU216DAVISVP2,2013-02-16 11:04:00,
2013-02-16 03:09:00,39.8,8.5,30.27,NW,317,0.0,3.0,27,0.00,,,0.00,WUHU216DAVISVP2,2013-02-16 11:09:00,
2013-02-16 03:14:00,39.0,10.1,30.27,NW,317,0.0,3.0,30,0.00,,,0.00,WUHU216DAVISVP2,2013-02-16 11:14:00,
2013-02-16 03:20:00,40.3,10.3,30.27,NW,317,1.0,3.0,29,0.00,,,0.00,WUHU216DAVISVP2,2013-02-16 11:20:00,
2013-02-16 03:25:00,41.1,10.2,30.27,NW,317,0.0,3.0,28,0.00,,,0.00,WUHU216DAVISVP2,2013-02-16 11:25:00,
2013-02-16 03:30:00,41.4,10.5,30.27,NW,317,0.0,3.0,28,0.00,,,0.00,WUHU216DAVISVP2,2013-02-16 11:30:00,
2013-02-16 03:35:00,41.3,9.6,30.27,NW,317,0.0,3.0,27,0.00,,,0.00,WUHU216DAVISVP2,2013-02-16 11:35:00,
2013-02-16 03:40:00,41.7,10.0,30.26,NW,317,3.0,4.0,27,0.00,,,0.00,WUHU216DAVISVP2,2013-02-16 11:40:00,
2013-02-16 03:45:00,41.7,10.8,30.26,NW,315,3.0,5.0,28,0.00,,,0.00,WUHU216DAVISVP2,2013-02-16 11:45:00,
2013-02-16 03:50:00,42.8,10.9,30.26,NNW,334,5.0,6.0,27,0.00,,,0.00,WUHU216DAVISVP2,2013-02-16 11:50:00,
2013-02-16 03:56:00,43.3,10.5,30.26,NNE,26,5.0,6.0,26,0.00,,,0.00,WUHU216DAVISVP2,2013-02-16 11:56:00,
2013-02-16 04:01:00,43.3,10.5,30.26,North,349,4.0,7.0,26,0.00,,,0.00,WUHU216DAVISVP2,2013-02-16 12:01:00,
2013-02-16 04:06:00,42.3,9.7,30.26,North,349,2.0,7.0,26,0.00,,,0.00,WUHU216DAVISVP2,2013-02-16 12:06:00,
2013-02-16 04:11:00,42.2,10.4,30.25,North,349,1.0,7.0,27,0.00,,,0.00,WUHU216DAVISVP2,2013-02-16 12:11:00,
2013-02-16 04:16:00,42.5,10.7,30.26,North,349,2.0,7.0,27,0.00,,,0.00,WUHU216DAVISVP2,2013-02-16 12:16:00,
2013-02-16 04:21:00,42.5,10.7,30.25,NNW,340,3.0,6.0,27,0.00,,,0.00,WUHU216DAVISVP2,2013-02-16 12:21:00,
2013-02-16 04:26:00,42.7,10.8,30.25,NNW,340,0.0,6.0,27,0.00,,,0.00,WUHU216DAVISVP2,2013-02-16 12:26:00,
2013-02-16 04:31:00,42.8,10.2,30.26,NNW,340,2.0,6.0,26,0.00,,,0.00,WUHU216DAVISVP2,2013-02-16 12:31:00,
2013-02-16 04:37:00,43.1,10.5,30.26,NNW,340,0.0,6.0,26,0.00,,,0.00,WUHU216DAVISVP2,2013-02-16 12:37:00,
2013-02-16 04:42:00,43.5,10.7,30.26,NNW,340,2.0,4.0,26,0.00,,,0.00,WUHU216DAVISVP2,2013-02-16 12:42:00,
2013-02-16 04:47:00,43.8,10.9,30.25,NNW,340,4.0,7.0,26,0.00,,,0.00,WUHU216DAVISVP2,2013-02-16 12:47:00,
2013-02-16 04:53:00,43.5,10.7,30.25,NW,320,6.0,8.0,26,0.00,,,0.00,WUHU216DAVISVP2,2013-02-16 12:53:00,
2013-02-16 04:58:00,43.1,10.3,30.25,NNW,333,7.0,8.0,26,0.00,,,0.00,WUHU216DAVISVP2,2013-02-16 12:58:00,
2013-02-16 05:03:00,42.9,11.0,30.25,NNW,336,8.0,9.0,27,0.00,,,0.00,WUHU216DAVISVP2,2013-02-16 13:03:00,
2013-02-16 05:08:00,42.3,10.5,30.25,NNW,327,6.0,9.0,27,0.00,,,0.00,WUHU216DAVISVP2,2013-02-16 13:08:00,
2013-02-16 05:13:00,41.8,11.0,30.25,NNW,327,4.0,9.0,28,0.00,,,0.00,WUHU216DAVISVP2,2013-02-16 13:13:00,
2013-02-16 05:20:00,42.1,10.5,30.25,NNW,327,4.0,9.0,27,0.00,,,0.00,WUHU216DAVISVP2,2013-02-16 13:20:00,
2013-02-16 05:25:00,42.5,10.8,30.26,NNW,328,3.0,7.0,27,0.00,,,0.00,WUHU216DAVISVP2,2013-02-16 13:25:00,
2013-02-16 05:30:00,42.3,10.5,30.25,NNW,328,5.0,6.0,27,0.00,,,0.00,WUHU216DAVISVP2,2013-02-16 13:30:00,
2013-02-16 05:35:00,42.9,10.2,30.25,NNW,337,6.0,7.0,26,0.00,,,0.00,WUHU216DAVISVP2,2013-02-16 13:35:00,
2013-02-16 05:40:00,42.3,10.5,30.25,NNW,342,6.0,8.0,27,0.00,,,0.00,WUHU216DAVISVP2,2013-02-16 13:40:00,
2013-02-16 05:45:00,40.9,9.3,30.25,NNW,341,3.0,8.0,27,0.00,,,0.00,WUHU216DAVISVP2,2013-02-16 13:45:00,
2013-02-16 05:50:00,40.9,10.1,30.25,NNW,340,1.0,8.0,28,0.00,,,0.00,WUHU216DAVISVP2,2013-02-16 13:50:00,
2013-02-16 05:55:00,41.6,10.7,30.25,NNW,340,0.0,8.0,28,0.00,,,0.00,WUHU216DAVISVP2,2013-02-16 13:55:00,
2013-02-16 06:00:00,42.4,10.6,30.25,NNW,340,1.0,4.0,27,0.00,,,0.00,WUHU216DAVISVP2,2013-02-16 14:00:00,
2013-02-16 06:06:00,43.4,10.6,30.25,NNW,340,2.0,3.0,26,0.00,,,0.00,WUHU216DAVISVP2,2013-02-16 14:06:00,
2013-02-16 06:11:00,43.7,10.9,30.25,NNW,340,4.0,5.0,26,0.00,,,0.00,WUHU216DAVISVP2,2013-02-16 14:11:00,
2013-02-16 06:16:00,43.8,10.9,30.25,NNW,340,4.0,6.0,26,0.00,,,0.00,WUHU216DAVISVP2,2013-02-16 14:16:00,
2013-02-16 06:21:00,43.5,10.7,30.25,NNW,340,2.0,6.0,26,0.00,,,0.00,WUHU216DAVISVP2,2013-02-16 14:21:00,
2013-02-16 06:26:00,43.1,10.3,30.26,NNW,340,1.0,6.0,26,0.00,,,0.00,WUHU216DAVISVP2,2013-02-16 14:26:00,
2013-02-16 06:31:00,43.6,10.8,30.26,NNW,340,1.0,6.0,26,0.00,,,0.00,WUHU216DAVISVP2,2013-02-16 14:31:00,
2013-02-16 06:36:00,43.8,10.1,30.26,NNW,340,1.0,4.0,25,0.00,,,0.00,WUHU216DAVISVP2,2013-02-16 14:36:00,
2013-02-16 06:41:00,44.4,10.6,30.26,NNW,340,3.0,4.0,25,0.00,,,0.00,WUHU216DAVISVP2,2013-02-16 14:41:00,
2013-02-16 06:46:00,44.5,9.8,30.26,NNW,340,1.0,4.0,24,0.00,,,0.00,WUHU216DAVISVP2,2013-02-16 14:46:00,
2013-02-16 06:51:00,44.5,9.8,30.26,NNW,340,4.0,4.0,24,0.00,,,0.00,WUHU216DAVISVP2,2013-02-16 14:51:00,
2013-02-16 06:56:00,44.5,9.8,30.26,NNW,340,3.0,5.0,24,0.00,,,0.00,WUHU216DAVISVP2,2013-02-16 14:56:00,
2013-02-16 07:01:00,44.6,9.9,30.26,NNW,340,3.0,5.0,24,0.00,,,0.00,WUHU216DAVISVP2,2013-02-16 15:01:00,
2013-02-16 07:07:00,44.9,10.1,30.26,NNW,340,3.0,5.0,24,0.00,,,0.00,WUHU216DAVISVP2,2013-02-16 15:07:00,
2013-02-16 07:12:00,44.9,10.1,30.26,NNW,340,1.0,5.0,24,0.00,,,0.00,WUHU216DAVISVP2,2013-02-16 15:12:00,
2013-02-16 07:17:00,45.1,10.3,30.26,NNW,340,0.0,5.0,24,0.00,,,0.00,WUHU216DAVISVP2,2013-02-16 15:17:00,
2013-02-16 07:22:00,45.4,10.6,30.26,NNW,340,0.0,4.0,24,0.00,,,0.00,WUHU216DAVISVP2,2013-02-16 15:22:00,
2013-02-16 07:27:00,45.9,11.0,30.26,NNW,340,0.0,4.0,24,0.00,,,0.00,WUHU216DAVISVP2,2013-02-16 15:27:00,
2013-02-16 07:34:00,46.3,11.3,30.27,NNW,340,1.0,3.0,24,0.00,,,0.00,WUHU216DAVISVP2,2013-02-16 15:34:00,
2013-02-16 07:39:00,46.8,10.8,30.27,NNW,340,3.0,3.0,23,0.00,,,0.00,WUHU216DAVISVP2,2013-02-16 15:39:00,
2013-02-16 07:44:00,47.5,11.4,30.27,NNW,340,1.0,3.0,23,0.00,,,0.00,WUHU216DAVISVP2,2013-02-16 15:44:00,
2013-02-16 07:49:00,48.1,11.9,30.26,NNW,340,0.0,3.0,23,0.00,,,0.00,WUHU216DAVISVP2,2013-02-16 15:49:00,
2013-02-16 07:55:00,48.7,11.4,30.27,NNW,340,1.0,3.0,22,0.00,,,0.00,WUHU216DAVISVP2,2013-02-16 15:55:00,
2013-02-16 08:00:00,49.6,12.2,30.27,NNW,340,2.0,4.0,22,0.00,,,0.00,WUHU216DAVISVP2,2013-02-16 16:00:00,
2013-02-16 08:06:00,50.3,11.7,30.27,NNW,340,0.0,4.0,21,0.00,,,0.00,WUHU216DAVISVP2,2013-02-16 16:06:00,
2013-02-16 08:12:00,51.2,12.5,30.26,NNW,340,0.0,4.0,21,0.00,,,0.00,WUHU216DAVISVP2,2013-02-16 16:12:00,
2013-02-16 08:17:00,51.7,12.9,30.26,NNW,340,0.0,4.0,21,0.00,,,0.00,WUHU216DAVISVP2,2013-02-16 16:17:00,
2013-02-16 08:22:00,52.7,11.5,30.26,NNW,340,4.0,5.0,19,0.00,,,0.00,WUHU216DAVISVP2,2013-02-16 16:22:00,
2013-02-16 08:27:00,53.9,11.3,30.26,NNE,25,4.0,6.0,18,0.00,,,0.00,WUHU216DAVISVP2,2013-02-16 16:27:00,
2013-02-16 08:32:00,54.7,11.9,30.26,NNE,25,4.0,6.0,18,0.00,,,0.00,WUHU216DAVISVP2,2013-02-16 16:32:00,
2013-02-16 08:38:00,55.5,11.3,30.26,NNE,12,3.0,6.0,17,0.00,,,0.00,WUHU216DAVISVP2,2013-02-16 16:38:00,
2013-02-16 08:43:00,56.4,10.7,30.26,North,355,8.0,8.0,16,0.00,,,0.00,WUHU216DAVISVP2,2013-02-16 16:43:00,
2013-02-16 08:48:00,57.1,9.8,30.26,North,355,6.0,9.0,15,0.00,,,0.00,WUHU216DAVISVP2,2013-02-16 16:48:00,
2013-02-16 08:53:00,57.7,8.7,30.26,North,11,8.0,9.0,14,0.00,,,0.00,WUHU216DAVISVP2,2013-02-16 16:53:00,
2013-02-16 08:58:00,58.2,9.1,30.26,North,355,7.0,9.0,14,0.00,,,0.00,WUHU216DAVISVP2,2013-02-16 16:58:00,
2013-02-16 09:03:00,58.4,7.6,30.26,North,355,7.0,9.0,13,0.00,,,0.00,WUHU216DAVISVP2,2013-02-16 17:03:00,
2013-02-16 09:08:00,58.6,9.4,30.26,North,5,5.0,9.0,14,0.00,,,0.00,WUHU216DAVISVP2,2013-02-16 17:08:00,
2013-02-16 09:14:00,58.7,7.8,30.26,NNW,338,5.0,10.0,13,0.00,,,0.00,WUHU216DAVISVP2,2013-02-16 17:14:00,
2013-02-16 09:19:00,59.0,8.1,30.26,NW,323,7.0,10.0,13,0.00,,,0.00,WUHU216DAVISVP2,2013-02-16 17:19:00,
2013-02-16 09:26:00,59.3,8.3,30.26,NNW,341,6.0,11.0,13,0.00,,,0.00,WUHU216DAVISVP2,2013-02-16 17:26:00,
2013-02-16 09:31:00,59.9,8.8,30.25,NNW,337,10.0,11.0,13,0.00,,,0.00,WUHU216DAVISVP2,2013-02-16 17:31:00,
2013-02-16 09:36:00,60.1,8.9,30.25,North,355,8.0,12.0,13,0.00,,,0.00,WUHU216DAVISVP2,2013-02-16 17:36:00,
2013-02-16 09:41:00,60.4,9.2,30.25,NNW,348,7.0,12.0,13,0.00,,,0.00,WUHU216DAVISVP2,2013-02-16 17:41:00,
2013-02-16 09:46:00,60.8,9.5,30.25,NNW,344,7.0,12.0,13,0.00,,,0.00,WUHU216DAVISVP2,2013-02-16 17:46:00,
2013-02-16 09:52:00,61.3,9.9,30.25,NNW,342,8.0,12.0,13,0.00,,,0.00,WUHU216DAVISVP2,2013-02-16 17:52:00,
2013-02-16 09:57:00,61.5,10.1,30.24,North,355,8.0,12.0,13,0.00,,,0.00,WUHU216DAVISVP2,2013-02-16 17:57:00,
2013-02-16 10:02:00,61.6,10.1,30.24,North,5,9.0,12.0,13,0.00,,,0.00,WUHU216DAVISVP2,2013-02-16 18:02:00,
2013-02-16 10:07:00,61.6,10.1,30.24,North,5,7.0,10.0,13,0.00,,,0.00,WUHU216DAVISVP2,2013-02-16 18:07:00,
2013-02-16 10:12:00,62.0,10.4,30.24,North,5,6.0,10.0,13,0.00,,,0.00,WUHU216DAVISVP2,2013-02-16 18:12:00,
2013-02-16 10:17:00,62.1,10.5,30.24,North,350,5.0,10.0,13,0.00,,,0.00,WUHU216DAVISVP2,2013-02-16 18:17:00,
2013-02-16 10:23:00,62.2,10.7,30.23,North,5,6.0,10.0,13,0.00,,,0.00,WUHU216DAVISVP2,2013-02-16 18:23:00,
2013-02-16 10:28:00,62.6,9.1,30.23,North,9,3.0,9.0,12,0.00,,,0.00,WUHU216DAVISVP2,2013-02-16 18:28:00,
2013-02-16 10:33:00,63.0,9.4,30.23,North,360,5.0,9.0,12,0.00,,,0.00,WUHU216DAVISVP2,2013-02-16 18:33:00,
2013-02-16 10:39:00,63.2,9.5,30.23,North,5,4.0,9.0,12,0.00,,,0.00,WUHU216DAVISVP2,2013-02-16 18:39:00,
2013-02-16 10:44:00,63.4,9.7,30.22,North,5,0.0,9.0,12,0.00,,,0.00,WUHU216DAVISVP2,2013-02-16 18:44:00,
2013-02-16 10:49:00,63.8,8.0,30.23,North,5,2.0,9.0,11,0.00,,,0.00,WUHU216DAVISVP2,2013-02-16 18:49:00,
2013-02-16 10:54:00,63.8,10.0,30.23,North,355,8.0,9.0,12,0.00,,,0.00,WUHU216DAVISVP2,2013-02-16 18:54:00,
2013-02-16 11:00:00,63.8,8.0,30.22,NW,322,6.0,9.0,11,0.00,,,0.00,WUHU216DAVISVP2,2013-02-16 19:00:00,
2013-02-16 11:06:00,63.8,8.0,30.22,NW,309,8.0,10.0,11,0.00,,,0.00,WUHU216DAVISVP2,2013-02-16 19:06:00,
2013-02-16 11:11:00,63.7,8.1,30.22,NNW,333,10.0,12.0,11,0.00,,,0.00,WUHU216DAVISVP2,2013-02-16 19:11:00,
2013-02-16 11:16:00,63.6,8.0,30.21,NNW,328,10.0,12.0,11,0.00,,,0.00,WUHU216DAVISVP2,2013-02-16 19:16:00,
2013-02-16 11:21:00,63.7,7.9,30.21,NNW,338,12.0,13.0,11,0.00,,,0.00,WUHU216DAVISVP2,2013-02-16 19:21:00,
2013-02-16 11:26:00,63.7,7.9,30.21,North,355,11.0,13.0,11,0.00,,,0.00,WUHU216DAVISVP2,2013-02-16 19:26:00,
2013-02-16 11:32:00,63.6,7.9,30.20,NW,315,9.0,15.0,11,0.00,,,0.00,WUHU216DAVISVP2,2013-02-16 19:32:00,
2013-02-16 11:37:00,63.8,8.2,30.20,North,360,8.0,15.0,11,0.00,,,0.00,WUHU216DAVISVP2,2013-02-16 19:37:00,
2013-02-16 11:42:00,64.0,8.2,30.20,NNW,347,8.0,15.0,11,0.00,,,0.00,WUHU216DAVISVP2,2013-02-16 19:42:00,
2013-02-16 11:47:00,64.3,8.4,30.19,NNW,332,6.0,15.0,11,0.00,,,0.00,WUHU216DAVISVP2,2013-02-16 19:47:00,
2013-02-16 11:52:00,64.6,8.6,30.19,North,355,10.0,14.0,11,0.00,,,0.00,WUHU216DAVISVP2,2013-02-16 19:52:00,
2013-02-16 11:57:00,64.7,8.7,30.19,NNW,344,9.0,14.0,11,0.00,,,0.00,WUHU216DAVISVP2,2013-02-16 19:57:00,
2013-02-16 12:02:00,64.7,8.9,30.18,NNW,347,7.0,14.0,11,0.00,,,0.00,WUHU216DAVISVP2,2013-02-16 20:02:00,
2013-02-16 12:09:00,64.9,6.7,30.18,NNW,342,8.0,13.0,10,0.00,,,0.00,WUHU216DAVISVP2,2013-02-16 20:09:00,
2013-02-16 12:15:00,65.1,6.9,30.17,NNW,328,9.0,13.0,10,0.00,,,0.00,WUHU216DAVISVP2,2013-02-16 20:15:00,
2013-02-16 12:20:00,65.5,7.2,30.17,North,355,9.0,13.0,10,0.00,,,0.00,WUHU216DAVISVP2,2013-02-16 20:20:00,
2013-02-16 12:25:00,65.9,7.5,30.17,NNW,336,9.0,13.0,10,0.00,,,0.00,WUHU216DAVISVP2,2013-02-16 20:25:00,
2013-02-16 12:30:00,66.1,5.3,30.16,NW,322,7.0,13.0,9,0.00,,,0.00,WUHU216DAVISVP2,2013-02-16 20:30:00,
2013-02-16 12:36:00,66.6,5.7,30.15,NNW,348,8.0,12.0,9,0.00,,,0.00,WUHU216DAVISVP2,2013-02-16 20:36:00,
2013-02-16 12:41:00,66.5,5.6,30.15,NNW,329,9.0,12.0,9,0.00,,,0.00,WUHU216DAVISVP2,2013-02-16 20:41:00,
2013-02-16 12:46:00,66.4,5.5,30.15,North,350,5.0,12.0,9,0.00,,,0.00,WUHU216DAVISVP2,2013-02-16 20:46:00,
2013-02-16 12:52:00,66.2,5.3,30.14,NW,315,2.0,12.0,9,0.00,,,0.00,WUHU216DAVISVP2,2013-02-16 20:52:00,
2013-02-16 12:57:00,66.8,5.8,30.14,NNE,15,2.0,12.0,9,0.00,,,0.00,WUHU216DAVISVP2,2013-02-16 20:57:00,
2013-02-16 13:02:00,67.2,6.1,30.13,ESE,117,3.0,10.0,9,0.00,,,0.00,WUHU216DAVISVP2,2013-02-16 21:02:00,
2013-02-16 13:07:00,67.4,6.3,30.13,SSE,152,3.0,9.0,9,0.00,,,0.00,WUHU216DAVISVP2,2013-02-16 21:07:00,
2013-02-16 13:12:00,67.6,3.8,30.12,SSE,154,2.0,9.0,8,0.00,,,0.00,WUHU216DAVISVP2,2013-02-16 21:12:00,
2013-02-16 13:17:00,67.7,4.2,30.12,SE,135,4.0,7.0,8,0.00,,,0.00,WUHU216DAVISVP2,2013-02-16 21:17:00,
2013-02-16 13:23:00,67.8,4.0,30.11,ENE,76,7.0,8.0,8,0.00,,,0.00,WUHU216DAVISVP2,2013-02-16 21:23:00,
2013-02-16 13:28:00,67.8,4.0,30.11,East,101,3.0,11.0,8,0.00,,,0.00,WUHU216DAVISVP2,2013-02-16 21:28:00,
2013-02-16 13:33:00,68.3,4.3,30.11,East,101,1.0,11.0,8,0.00,,,0.00,WUHU216DAVISVP2,2013-02-16 21:33:00,
2013-02-16 13:38:00,68.0,4.4,30.10,WNW,298,4.0,11.0,8,0.00,,,0.00,WUHU216DAVISVP2,2013-02-16 21:38:00,
2013-02-16 13:43:00,68.0,4.1,30.10,WSW,253,0.0,9.0,8,0.00,,,0.00,WUHU216DAVISVP2,2013-02-16 21:43:00,
2013-02-16 13:48:00,68.1,4.2,30.09,SE,134,5.0,8.0,8,0.00,,,0.00,WUHU216DAVISVP2,2013-02-16 21:48:00,
2013-02-16 13:53:00,67.9,4.3,30.09,SE,136,2.0,8.0,8,0.00,,,0.00,WUHU216DAVISVP2,2013-02-16 21:53:00,
2013-02-16 13:59:00,67.9,4.0,30.09,NE,45,5.0,8.0,8,0.00,,,0.00,WUHU216DAVISVP2,2013-02-16 21:59:00,
2013-02-16 14:05:00,67.8,4.0,30.08,ESE,118,5.0,9.0,8,0.00,,,0.00,WUHU216DAVISVP2,2013-02-16 22:05:00,
2013-02-16 14:10:00,68.0,4.1,30.08,ESE,121,2.0,14.0,8,0.00,,,0.00,WUHU216DAVISVP2,2013-02-16 22:10:00,
2013-02-16 14:15:00,68.4,1.8,30.08,East,86,8.0,14.0,7,0.00,,,0.00,WUHU216DAVISVP2,2013-02-16 22:15:00,
2013-02-16 14:21:00,68.4,4.4,30.08,East,91,7.0,14.0,8,0.00,,,0.00,WUHU216DAVISVP2,2013-02-16 22:21:00,
2013-02-16 14:26:00,68.3,1.5,30.08,ENE,77,5.0,13.0,7,0.00,,,0.00,WUHU216DAVISVP2,2013-02-16 22:26:00,
2013-02-16 14:33:00,68.3,4.6,30.08,SSE,166,6.0,13.0,8,0.00,,,0.00,WUHU216DAVISVP2,2013-02-16 22:33:00,
2013-02-16 14:38:00,68.4,4.4,30.07,ESE,121,7.0,10.0,8,0.00,,,0.00,WUHU216DAVISVP2,2013-02-16 22:38:00,
2013-02-16 14:43:00,68.5,1.7,30.07,ESE,121,2.0,10.0,7,0.00,,,0.00,WUHU216DAVISVP2,2013-02-16 22:43:00,
2013-02-16 14:49:00,68.7,1.8,30.07,ESE,121,2.0,10.0,7,0.00,,,0.00,WUHU216DAVISVP2,2013-02-16 22:49:00,
2013-02-16 14:54:00,68.7,1.8,30.06,ESE,121,2.0,10.0,7,0.00,,,0.00,WUHU216DAVISVP2,2013-02-16 22:54:00,
2013-02-16 14:59:00,69.0,2.0,30.06,ESE,121,3.0,5.0,7,0.00,,,0.00,WUHU216DAVISVP2,2013-02-16 22:59:00,
2013-02-16 15:05:00,68.9,2.0,30.06,ESE,121,1.0,5.0,7,0.00,,,0.00,WUHU216DAVISVP2,2013-02-16 23:05:00,
2013-02-16 15:10:00,69.2,2.2,30.06,ESE,121,2.0,5.0,7,0.00,,,0.00,WUHU216DAVISVP2,2013-02-16 23:10:00,
2013-02-16 15:15:00,69.4,2.3,30.06,East,94,1.0,7.0,7,0.00,,,0.00,WUHU216DAVISVP2,2013-02-16 23:15:00,
2013-02-16 15:20:00,69.6,2.5,30.06,ESE,110,2.0,8.0,7,0.00,,,0.00,WUHU216DAVISVP2,2013-02-16 23:20:00,
2013-02-16 15:25:00,69.3,2.3,30.05,SSE,151,7.0,8.0,7,0.00,,,0.00,WUHU216DAVISVP2,2013-02-16 23:25:00,
2013-02-16 15:30:00,69.1,2.1,30.05,SSE,153,6.0,8.0,7,0.00,,,0.00,WUHU216DAVISVP2,2013-02-16 23:30:00,
2013-02-16 15:35:00,69.0,2.0,30.05,SSE,153,0.0,8.0,7,0.00,,,0.00,WUHU216DAVISVP2,2013-02-16 23:35:00,
2013-02-16 15:41:00,69.4,2.3,30.05,SSE,168,6.0,8.0,7,0.00,,,0.00,WUHU216DAVISVP2,2013-02-16 23:41:00,
2013-02-16 15:46:00,69.6,2.5,30.05,SSW,194,4.0,7.0,7,0.00,,,0.00,WUHU216DAVISVP2,2013-02-16 23:46:00,
2013-02-16 15:51:00,69.4,2.3,30.05,SSW,194,1.0,7.0,7,0.00,,,0.00,WUHU216DAVISVP2,2013-02-16 23:51:00,
2013-02-16 15:56:00,69.1,2.1,30.05,SSE,165,0.0,7.0,7,0.00,,,0.00,WUHU216DAVISVP2,2013-02-16 23:56:00,
2013-02-16 16:01:00,69.0,2.0,30.04,SSE,150,4.0,6.0,7,0.00,,,0.00,WUHU216DAVISVP2,2013-02-17 00:01:00,
2013-02-16 16:07:00,69.0,2.0,30.04,SSE,150,1.0,6.0,7,0.00,,,0.00,WUHU216DAVISVP2,2013-02-17 00:07:00,
2013-02-16 16:12:00,68.7,1.8,30.04,SE,140,0.0,7.0,7,0.00,,,0.00,WUHU216DAVISVP2,2013-02-17 00:12:00,
2013-02-16 16:17:00,68.7,1.8,30.04,SE,140,0.0,7.0,7,0.00,,,0.00,WUHU216DAVISVP2,2013-02-17 00:17:00,
2013-02-16 16:22:00,68.7,1.8,30.04,SE,140,1.0,7.0,7,0.00,,,0.00,WUHU216DAVISVP2,2013-02-17 00:22:00,
2013-02-16 16:28:00,68.6,1.7,30.03,SE,140,0.0,6.0,7,0.00,,,0.00,WUHU216DAVISVP2,2013-02-17 00:28:00,
2013-02-16 16:33:00,68.5,1.7,30.03,SE,140,0.0,5.0,7,0.00,,,0.00,WUHU216DAVISVP2,2013-02-17 00:33:00,
2013-02-16 16:38:00,68.1,1.6,30.03,SE,140,2.0,5.0,7,0.00,,,0.00,WUHU216DAVISVP2,2013-02-17 00:38:00,
2013-02-16 16:44:00,67.9,1.2,30.03,SE,140,0.0,4.0,7,0.00,,,0.00,WUHU216DAVISVP2,2013-02-17 00:44:00,
2013-02-16 16:50:00,67.8,1.2,30.03,SE,140,0.0,4.0,7,0.00,,,0.00,WUHU216DAVISVP2,2013-02-17 00:50:00,
2013-02-16 16:55:00,67.7,1.1,30.03,SE,140,2.0,4.0,7,0.00,,,0.00,WUHU216DAVISVP2,2013-02-17 00:55:00,
2013-02-16 17:00:00,67.2,0.7,30.03,SE,140,3.0,4.0,7,0.00,,,0.00,WUHU216DAVISVP2,2013-02-17 01:00:00,
2013-02-16 17:06:00,66.6,3.1,30.03,SE,140,3.0,4.0,8,0.00,,,0.00,WUHU216DAVISVP2,2013-02-17 01:06:00,
2013-02-16 17:12:00,65.7,2.7,30.03,SE,140,3.0,4.0,8,0.00,,,0.00,WUHU216DAVISVP2,2013-02-17 01:12:00,
2013-02-16 17:17:00,64.6,1.8,30.02,SE,140,3.0,4.0,8,0.00,,,0.00,WUHU216DAVISVP2,2013-02-17 01:17:00,
2013-02-16 17:22:00,63.2,3.3,30.03,SE,140,4.0,5.0,9,0.00,,,0.00,WUHU216DAVISVP2,2013-02-17 01:22:00,
2013-02-16 17:27:00,61.8,2.0,30.03,SE,140,5.0,5.0,9,0.00,,,0.00,WUHU216DAVISVP2,2013-02-17 01:27:00,
2013-02-16 17:32:00,60.4,1.0,30.03,SE,140,2.0,5.0,9,0.00,,,0.00,WUHU216DAVISVP2,2013-02-17 01:32:00,
2013-02-16 17:37:00,59.8,2.8,30.02,SE,140,4.0,5.0,10,0.00,,,0.00,WUHU216DAVISVP2,2013-02-17 01:37:00,
2013-02-16 17:42:00,59.8,2.8,30.02,SE,140,5.0,5.0,10,0.00,,,0.00,WUHU216DAVISVP2,2013-02-17 01:42:00,
2013-02-16 17:47:00,59.0,2.2,30.02,SE,140,4.0,6.0,10,0.00,,,0.00,WUHU216DAVISVP2,2013-02-17 01:47:00,
2013-02-16 17:52:00,57.7,3.3,30.02,North,5,7.0,8.0,11,0.00,,,0.00,WUHU216DAVISVP2,2013-02-17 01:52:00,
2013-02-16 17:57:00,56.9,2.7,30.02,North,360,6.0,8.0,11,0.00,,,0.00,WUHU216DAVISVP2,2013-02-17 01:57:00,
2013-02-16 18:02:00,56.9,2.7,30.02,North,360,7.0,8.0,11,0.00,,,0.00,WUHU216DAVISVP2,2013-02-17 02:02:00,
2013-02-16 18:08:00,56.3,4.1,30.03,North,355,7.0,9.0,12,0.00,,,0.00,WUHU216DAVISVP2,2013-02-17 02:08:00,
2013-02-16 18:14:00,55.3,3.4,30.02,North,355,5.0,9.0,12,0.00,,,0.00,WUHU216DAVISVP2,2013-02-17 02:14:00,
2013-02-16 18:21:00,54.3,4.3,30.03,North,355,6.0,9.0,13,0.00,,,0.00,WUHU216DAVISVP2,2013-02-17 02:21:00,
2013-02-16 18:26:00,53.8,3.9,30.03,North,355,6.0,8.0,13,0.00,,,0.00,WUHU216DAVISVP2,2013-02-17 02:26:00,
2013-02-16 18:31:00,54.0,4.1,30.03,North,355,6.0,7.0,13,0.00,,,0.00,WUHU216DAVISVP2,2013-02-17 02:31:00,
2013-02-16 18:36:00,54.0,4.1,30.03,North,355,5.0,7.0,13,0.00,,,0.00,WUHU216DAVISVP2,2013-02-17 02:36:00,
2013-02-16 18:41:00,53.9,4.0,30.03,North,355,7.0,8.0,13,0.00,,,0.00,WUHU216DAVISVP2,2013-02-17 02:41:00,
2013-02-16 18:46:00,52.9,3.2,30.03,NNW,344,5.0,8.0,13,0.00,,,0.00,WUHU216DAVISVP2,2013-02-17 02:46:00,
2013-02-16 18:52:00,51.9,4.1,30.03,NNW,344,6.0,8.0,14,0.00,,,0.00,WUHU216DAVISVP2,2013-02-17 02:52:00,
2013-02-16 18:57:00,51.3,5.1,30.03,NNW,344,4.0,8.0,15,0.00,,,0.00,WUHU216DAVISVP2,2013-02-17 02:57:00,
2013-02-16 19:02:00,51.1,5.0,30.02,NNW,344,6.0,7.0,15,0.00,,,0.00,WUHU216DAVISVP2,2013-02-17 03:02:00,
2013-02-16 19:07:00,50.8,4.7,30.02,NNW,344,6.0,8.0,15,0.00,,,0.00,WUHU216DAVISVP2,2013-02-17 03:07:00,
2013-02-16 19:12:00,50.0,4.1,30.02,NNW,344,3.0,8.0,15,0.00,,,0.00,WUHU216DAVISVP2,2013-02-17 03:12:00,
2013-02-16 19:17:00,49.9,5.4,30.02,NNW,343,6.0,8.0,16,0.00,,,0.00,WUHU216DAVISVP2,2013-02-17 03:17:00,
2013-02-16 19:23:00,49.9,5.4,30.02,NW,325,5.0,7.0,16,0.00,,,0.00,WUHU216DAVISVP2,2013-02-17 03:23:00,
2013-02-16 19:28:00,49.6,5.2,30.02,NW,326,4.0,7.0,16,0.00,,,0.00,WUHU216DAVISVP2,2013-02-17 03:28:00,
2013-02-16 19:33:00,48.9,4.6,30.02,NNW,327,5.0,7.0,16,0.00,,,0.00,WUHU216DAVISVP2,2013-02-17 03:33:00,
2013-02-16 19:38:00,48.7,5.8,30.01,NNW,331,7.0,8.0,17,0.00,,,0.00,WUHU216DAVISVP2,2013-02-17 03:38:00,
2013-02-16 19:43:00,48.6,5.7,30.01,NW,323,6.0,8.0,17,0.00,,,0.00,WUHU216DAVISVP2,2013-02-17 03:43:00,
2013-02-16 19:49:00,48.9,4.6,30.02,NW,324,4.0,8.0,16,0.00,,,0.00,WUHU216DAVISVP2,2013-02-17 03:49:00,
2013-02-16 19:55:00,48.2,5.3,30.02,NW,325,5.0,8.0,17,0.00,,,0.00,WUHU216DAVISVP2,2013-02-17 03:55:00,
2013-02-16 20:00:00,47.6,4.9,30.01,NNW,342,7.0,8.0,17,0.00,,,0.00,WUHU216DAVISVP2,2013-02-17 04:00:00,
2013-02-16 20:05:00,47.0,4.4,30.02,NNW,344,4.0,7.0,17,0.00,,,0.00,WUHU216DAVISVP2,2013-02-17 04:05:00,
2013-02-16 20:10:00,46.5,5.2,30.02,NNW,346,6.0,7.0,18,0.00,,,0.00,WUHU216DAVISVP2,2013-02-17 04:10:00,
2013-02-16 20:17:00,46.5,6.4,30.02,NNW,346,5.0,7.0,19,0.00,,,0.00,WUHU216DAVISVP2,2013-02-17 04:17:00,
2013-02-16 20:23:00,46.8,5.5,30.02,NNW,346,5.0,7.0,18,0.00,,,0.00,WUHU216DAVISVP2,2013-02-17 04:23:00,
2013-02-16 20:28:00,47.4,5.9,30.02,NNW,346,4.0,7.0,18,0.00,,,0.00,WUHU216DAVISVP2,2013-02-17 04:28:00,
2013-02-16 20:34:00,46.9,5.5,30.02,NNW,340,3.0,5.0,18,0.00,,,0.00,WUHU216DAVISVP2,2013-02-17 04:34:00,
2013-02-16 20:39:00,46.8,5.5,30.02,NNW,340,2.0,5.0,18,0.00,,,0.00,WUHU216DAVISVP2,2013-02-17 04:39:00,
2013-02-16 20:44:00,47.2,5.8,30.02,NNW,340,3.0,5.0,18,0.00,,,0.00,WUHU216DAVISVP2,2013-02-17 04:44:00,
2013-02-16 20:50:00,46.9,5.5,30.02,NNW,340,0.0,5.0,18,0.00,,,0.00,WUHU216DAVISVP2,2013-02-17 04:50:00,
2013-02-16 20:55:00,45.9,4.7,30.02,NNW,340,3.0,4.0,18,0.00,,,0.00,WUHU216DAVISVP2,2013-02-17 04:55:00,
2013-02-16 21:00:00,46.1,4.9,30.02,NNW,340,4.0,4.0,18,0.00,,,0.00,WUHU216DAVISVP2,2013-02-17 05:00:00,
2013-02-16 21:05:00,46.0,4.8,30.02,NNW,340,2.0,4.0,18,0.00,,,0.00,WUHU216DAVISVP2,2013-02-17 05:05:00,
2013-02-16 21:10:00,45.7,4.5,30.02,NNW,340,2.0,4.0,18,0.00,,,0.00,WUHU216DAVISVP2,2013-02-17 05:10:00,
2013-02-16 21:15:00,45.5,5.6,30.02,NNW,340,0.0,4.0,19,0.00,,,0.00,WUHU216DAVISVP2,2013-02-17 05:15:00,
2013-02-16 21:20:00,45.6,5.6,30.02,NNW,334,1.0,5.0,19,0.00,,,0.00,WUHU216DAVISVP2,2013-02-17 05:20:00,
2013-02-16 21:25:00,46.1,6.0,30.02,NNW,334,2.0,5.0,19,0.00,,,0.00,WUHU216DAVISVP2,2013-02-17 05:25:00,
2013-02-16 21:30:00,46.0,4.8,30.02,NNW,334,3.0,5.0,18,0.00,,,0.00,WUHU216DAVISVP2,2013-02-17 05:30:00,
2013-02-16 21:35:00,44.2,4.5,30.02,NNW,334,3.0,5.0,19,0.00,,,0.00,WUHU216DAVISVP2,2013-02-17 05:35:00,
2013-02-16 21:40:00,44.3,5.7,30.02,NNW,334,2.0,5.0,20,0.00,,,0.00,WUHU216DAVISVP2,2013-02-17 05:40:00,
2013-02-16 21:46:00,44.8,5.0,30.01,WSW,252,2.0,5.0,19,0.00,,,0.00,WUHU216DAVISVP2,2013-02-17 05:46:00,
2013-02-16 21:51:00,44.9,5.1,30.01,WSW,252,0.0,5.0,19,0.00,,,0.00,WUHU216DAVISVP2,2013-02-17 05:51:00,
2013-02-16 21:56:00,45.1,6.3,30.01,West,267,3.0,5.0,20,0.00,,,0.00,WUHU216DAVISVP2,2013-02-17 05:56:00,
2013-02-16 22:01:00,45.5,5.6,30.01,NNW,330,0.0,6.0,19,0.00,,,0.00,WUHU216DAVISVP2,2013-02-17 06:01:00,
2013-02-16 22:06:00,45.7,6.8,30.01,NNW,340,0.0,6.0,20,0.00,,,0.00,WUHU216DAVISVP2,2013-02-17 06:06:00,
2013-02-16 22:11:00,46.3,7.3,30.01,NNW,335,2.0,6.0,20,0.00,,,0.00,WUHU216DAVISVP2,2013-02-17 06:11:00,
2013-02-16 22:17:00,46.2,6.1,30.01,NNW,335,0.0,6.0,19,0.00,,,0.00,WUHU216DAVISVP2,2013-02-17 06:17:00,
2013-02-16 22:22:00,45.7,6.8,30.01,NNW,335,3.0,6.0,20,0.00,,,0.00,WUHU216DAVISVP2,2013-02-17 06:22:00,
2013-02-16 22:27:00,44.9,6.2,30.01,NNW,327,3.0,5.0,20,0.00,,,0.00,WUHU216DAVISVP2,2013-02-17 06:27:00,
2013-02-16 22:32:00,45.2,6.4,30.01,NNW,327,5.0,5.0,20,0.00,,,0.00,WUHU216DAVISVP2,2013-02-17 06:32:00,
2013-02-16 22:37:00,46.4,7.4,30.00,NNW,346,4.0,7.0,20,0.00,,,0.00,WUHU216DAVISVP2,2013-02-17 06:37:00,
2013-02-16 22:42:00,46.4,7.4,30.00,NNW,346,4.0,7.0,20,0.00,,,0.00,WUHU216DAVISVP2,2013-02-17 06:42:00,
2013-02-16 22:48:00,45.0,6.2,30.00,NNW,342,4.0,7.0,20,0.00,,,0.00,WUHU216DAVISVP2,2013-02-17 06:48:00,
2013-02-16 22:53:00,45.2,7.5,30.00,NNW,342,5.0,7.0,21,0.00,,,0.00,WUHU216DAVISVP2,2013-02-17 06:53:00,
2013-02-16 22:59:00,45.2,7.5,30.00,NNW,342,0.0,6.0,21,0.00,,,0.00,WUHU216DAVISVP2,2013-02-17 06:59:00,
2013-02-16 23:05:00,44.8,8.1,30.00,WNW,282,2.0,6.0,22,0.00,,,0.00,WUHU216DAVISVP2,2013-02-17 07:05:00,
2013-02-16 23:10:00,44.7,8.1,29.99,WNW,283,2.0,6.0,22,0.00,,,0.00,WUHU216DAVISVP2,2013-02-17 07:10:00,
2013-02-16 23:15:00,44.6,8.0,29.99,WNW,283,2.0,6.0,22,0.00,,,0.00,WUHU216DAVISVP2,2013-02-17 07:15:00,
2013-02-16 23:20:00,44.4,7.9,29.99,WNW,283,3.0,6.0,22,0.00,,,0.00,WUHU216DAVISVP2,2013-02-17 07:20:00,
2013-02-16 23:25:00,43.6,7.2,29.99,WNW,283,3.0,5.0,22,0.00,,,0.00,WUHU216DAVISVP2,2013-02-17 07:25:00,
2013-02-16 23:31:00,42.2,7.8,29.99,WNW,283,0.0,5.0,24,0.00,,,0.00,WUHU216DAVISVP2,2013-02-17 07:31:00,
2013-02-16 23:36:00,41.6,7.3,29.99,WNW,283,4.0,5.0,24,0.00,,,0.00,WUHU216DAVISVP2,2013-02-17 07:36:00,
2013-02-16 23:41:00,41.0,7.7,29.99,WNW,301,3.0,5.0,25,0.00,,,0.00,WUHU216DAVISVP2,2013-02-17 07:41:00,
2013-02-16 23:47:00,40.5,7.4,29.99,NW,304,5.0,5.0,25,0.00,,,0.00,WUHU216DAVISVP2,2013-02-17 07:47:00,
2013-02-16 23:52:00,40.8,7.6,29.99,NNW,327,3.0,6.0,25,0.00,,,0.00,WUHU216DAVISVP2,2013-02-17 07:52:00,
2013-02-16 23:57:00,40.2,7.0,29.99,NW,314,0.0,6.0,25,0.00,,,0.00,WUHU216DAVISVP2,2013-02-17 07:57:00,